Starlink 32418

operational
NORAD ID: 62429 Int'l Des: 2024-249 Owner: SPXS Country: US Constellation: starlink
LEOCIRCULAR

关于 Starlink 32418

正在加载描述...

实时位置

正在加载3D地球...

即将过境

高度历史

Altitude vs Time

uPlot chart will show altitude changes over time

两行轨道根数

1 62429U 24249W 26033.37705270 .00039780 00000-0 14449-2 0 9990
2 62429 42.9821 153.4273 0005198 141.3235 218.7989 15.27624456 62417
Epoch: Feb 2, 2026 • Age: 19 hours

当前状态

高度 492.5 km
速度 7.62 km/s
星下点 -25.19°S, 70.11°W
发射日期 Dec 23, 2024
运行时间 1.1 years
类型 internet

技术详情

分类 Payload
质量 730.00 kg
干质量 700.00 kg
总质量 730.00 kg
长度 0.30 m
直径 4.10 m
跨度 29.00 m
形状 Box + pan
制造商 SPXS
平台类型 Starlink V2M
阶段状态 In Orbit
所有者/国家 SPXS/US

大型星座

Loading constellations...